| time (UTC) | temp F | wind direction | speed MPH | gust MPH | rain 1hr in | rain 24hr in | rain mn in | humidity % | barometer mb |
| 20260506181626 | 85 | 221 | 2.0 | 6.0 | 0.00 | 0.00 | 0.00 | 75 | 1009.5 |
| 20260506181124 | 85 | 206 | 2.0 | 7.0 | 0.00 | 0.00 | 0.00 | 75 | 1009.6 |
| 20260506180625 | 85 | 170 | 2.0 | 7.0 | 0.00 | 0.00 | 0.00 | 76 | 1009.6 |
| 20260506180124 | 85 | 184 | 2.0 | 7.0 | 0.00 | 0.00 | 0.00 | 76 | 1009.7 |
| 20260506175625 | 85 | 188 | 2.0 | 6.0 | 0.00 | 0.00 | 0.00 | 76 | 1009.8 |
| 20260506175125 | 85 | 207 | 1.0 | 5.0 | 0.00 | 0.00 | 0.00 | 76 | 1009.9 |
| 20260506174620 | 84 | 209 | 1.0 | 5.0 | 0.00 | 0.00 | 0.00 | 77 | 1009.8 |
| 20260506174122 | 84 | 190 | 1.0 | 3.0 | 0.00 | 0.00 | 0.00 | 77 | 1010.0 |
| 20260506173843 | 84 | 183 | 1.0 | 4.0 | 0.00 | 0.00 | 0.00 | 78 | 1010.0 |
| 20260506173118 | 83 | 187 | 2.0 | 6.0 | 0.00 | 0.00 | 0.00 | 77 | 1010.1 |
| 20260506172618 | 83 | 167 | 2.0 | 6.0 | 0.00 | 0.00 | 0.00 | 77 | 1010.2 |
| 20260506172116 | 83 | 174 | 1.0 | 4.0 | 0.00 | 0.00 | 0.00 | 78 | 1010.2 |
| 20260506171843 | 83 | 173 | 1.0 | 4.0 | 0.00 | 0.00 | 0.00 | 78 | 1010.2 |
| 20260506171111 | 83 | 179 | 1.0 | 4.0 | 0.00 | 0.00 | 0.00 | 79 | 1010.3 |
| 20260506170839 | 82 | 180 | 1.0 | 5.0 | 0.00 | 0.00 | 0.00 | 79 | 1010.4 |
| 20260506170110 | 82 | 202 | 1.0 | 5.0 | 0.00 | 0.00 | 0.00 | 80 | 1010.4 |
| 20260506165609 | 82 | 192 | 1.0 | 5.0 | 0.00 | 0.00 | 0.00 | 80 | 1010.3 |
| 20260506165108 | 81 | 181 | 1.0 | 5.0 | 0.00 | 0.00 | 0.00 | 80 | 1010.4 |
| 20260506164608 | 81 | 182 | 2.0 | 5.0 | 0.00 | 0.00 | 0.00 | 81 | 1010.4 |
| 20260506164102 | 81 | 181 | 2.0 | 5.0 | 0.00 | 0.00 | 0.00 | 81 | 1010.4 |
| 20260506163550 | 80 | 178 | 2.0 | 5.0 | 0.00 | 0.00 | 0.00 | 82 | 1010.3 |
| 20260506163044 | 80 | 192 | 1.0 | 5.0 | 0.00 | 0.00 | 0.00 | 82 | 1010.2 |
| 20260506162538 | 80 | 185 | 1.0 | 6.0 | 0.00 | 0.00 | 0.00 | 81 | 1010.2 |
| 20260506162028 | 80 | 185 | 1.0 | 6.0 | 0.00 | 0.00 | 0.00 | 81 | 1010.1 |
| 20260506161522 | 80 | 176 | 2.0 | 5.0 | 0.00 | 0.00 | 0.00 | 81 | 1010.1 |
| 20260506161016 | 80 | 161 | 2.0 | 5.0 | 0.00 | 0.00 | 0.00 | 82 | 1010.1 |
| 20260506160508 | 80 | 179 | 2.0 | 7.0 | 0.00 | 0.00 | 0.00 | 82 | 1009.9 |
| 20260506160000 | 80 | 185 | 2.0 | 7.0 | 0.00 | 0.00 | 0.00 | 82 | 1010.0 |
| 20260506155453 | 80 | 179 | 1.0 | 6.0 | 0.00 | 0.00 | 0.00 | 82 | 1010.0 |
| 20260506154942 | 79 | 170 | 1.0 | 3.0 | 0.00 | 0.00 | 0.00 | 82 | 1010.0 |
| 20260506154439 | 79 | 174 | 1.0 | 4.0 | 0.00 | 0.00 | 0.00 | 82 | 1010.1 |
| 20260506153932 | 79 | 175 | 1.0 | 6.0 | 0.00 | 0.00 | 0.00 | 82 | 1010.1 |
| 20260506153422 | 79 | 173 | 1.0 | 6.0 | 0.00 | 0.00 | 0.00 | 82 | 1010.1 |
| 20260506152915 | 80 | 163 | 1.0 | 7.0 | 0.00 | 0.00 | 0.00 | 82 | 1009.8 |
| 20260506152408 | 80 | 181 | 2.0 | 7.0 | 0.00 | 0.00 | 0.00 | 82 | 1009.6 |
| 20260506151900 | 79 | 174 | 1.0 | 5.0 | 0.00 | 0.00 | 0.00 | 82 | 1009.5 |
| 20260506151352 | 79 | 175 | 1.0 | 4.0 | 0.00 | 0.00 | 0.00 | 82 | 1009.6 |
| 20260506150846 | 79 | 169 | 1.0 | 5.0 | 0.00 | 0.00 | 0.00 | 82 | 1009.6 |
| 20260506150339 | 79 | 169 | 1.0 | 5.0 | 0.00 | 0.00 | 0.00 | 82 | 1009.5 |
| 20260506145831 | 79 | 168 | 1.0 | 4.0 | 0.00 | 0.00 | 0.00 | 82 | 1009.5 |
| 20260506145325 | 79 | 173 | 1.0 | 5.0 | 0.00 | 0.00 | 0.00 | 82 | 1009.3 |
| 20260506145301 | 79 | 176 | 2.0 | 5.0 | 0.00 | 0.00 | 0.00 | 82 | 1009.2 |
| 20260506144309 | 79 | 190 | 2.0 | 8.0 | 0.00 | 0.00 | 0.00 | 83 | 1009.1 |
| 20260506144027 | 79 | 172 | 2.0 | 8.0 | 0.00 | 0.00 | 0.00 | 83 | 1009.0 |
| 20260506143252 | 79 | 171 | 1.0 | 6.0 | 0.00 | 0.00 | 0.00 | 83 | 1008.9 |
| 20260506142748 | 79 | 178 | 1.0 | 6.0 | 0.00 | 0.00 | 0.00 | 84 | 1008.8 |
| 20260506142249 | 78 | 184 | 1.0 | 5.0 | 0.00 | 0.00 | 0.00 | 84 | 1009.0 |
| 20260506141743 | 78 | 181 | 1.0 | 3.0 | 0.00 | 0.00 | 0.00 | 84 | 1009.0 |
| 20260506141243 | 78 | 180 | 1.0 | 4.0 | 0.00 | 0.00 | 0.00 | 85 | 1009.1 |
| 20260506141009 | 78 | 180 | 1.0 | 5.0 | 0.00 | 0.00 | 0.00 | 85 | 1009.1 |
| 20260506140245 | 78 | 179 | 1.0 | 5.0 | 0.00 | 0.00 | 0.00 | 85 | 1009.2 |
| 20260506135744 | 78 | 173 | 1.0 | 3.0 | 0.00 | 0.00 | 0.00 | 86 | 1009.2 |
| 20260506135245 | 78 | 176 | 1.0 | 5.0 | 0.00 | 0.00 | 0.00 | 86 | 1009.2 |
| 20260506134744 | 77 | 174 | 1.0 | 5.0 | 0.00 | 0.00 | 0.00 | 87 | 1009.2 |
| 20260506134247 | 77 | 176 | 1.0 | 4.0 | 0.00 | 0.00 | 0.00 | 87 | 1009.2 |
| 20260506133745 | 77 | 173 | 0.0 | 3.0 | 0.00 | 0.00 | 0.00 | 87 | 1009.2 |
| 20260506133243 | 77 | 173 | 0.0 | 3.0 | 0.00 | 0.00 | 0.00 | 88 | 1009.3 |
| 20260506132743 | 77 | 173 | 0.0 | 3.0 | 0.00 | 0.00 | 0.00 | 88 | 1009.3 |
| 20260506132512 | 76 | 172 | 0.0 | 4.0 | 0.00 | 0.00 | 0.00 | 88 | 1009.3 |
| 20260506131744 | 76 | 173 | 0.0 | 4.0 | 0.00 | 0.00 | 0.00 | 88 | 1009.3 |
| 20260506131240 | 76 | 171 | 0.0 | 2.0 | 0.00 | 0.00 | 0.00 | 88 | 1009.4 |
| 20260506130732 | 76 | 171 | 0.0 | 3.0 | 0.00 | 0.00 | 0.00 | 88 | 1009.3 |
| 20260506130229 | 76 | 171 | 0.0 | 3.0 | 0.00 | 0.00 | 0.00 | 88 | 1009.3 |
| 20260506125948 | 76 | 172 | 0.0 | 3.0 | 0.00 | 0.00 | 0.00 | 88 | 1009.2 |
| 20260506125448 | 76 | 173 | 0.0 | 3.0 | 0.00 | 0.00 | 0.00 | 88 | 1009.2 |
| 20260506124726 | 76 | 173 | 0.0 | 3.0 | 0.00 | 0.00 | 0.00 | 88 | 1009.3 |
| 20260506124224 | 76 | 173 | 1.0 | 3.0 | 0.00 | 0.00 | 0.00 | 88 | 1009.3 |
| 20260506123721 | 76 | 173 | 1.0 | 3.0 | 0.00 | 0.00 | 0.00 | 88 | 1009.3 |
| 20260506123438 | 76 | 170 | 1.0 | 4.0 | 0.00 | 0.00 | 0.00 | 88 | 1009.0 |
| 20260506123321 | 76 | 170 | 1.0 | 3.0 | 0.00 | 0.00 | 0.00 | 88 | 1009.2 |
| 20260506122219 | 76 | 170 | 1.0 | 4.0 | 0.00 | 0.00 | 0.00 | 88 | 1008.9 |
| 20260506121718 | 76 | 169 | 1.0 | 5.0 | 0.00 | 0.00 | 0.00 | 88 | 1009.0 |
| 20260506121218 | 76 | 169 | 1.0 | 5.0 | 0.00 | 0.00 | 0.00 | 88 | 1009.0 |
| 20260506120716 | 76 | 171 | 0.0 | 3.0 | 0.00 | 0.00 | 0.00 | 88 | 1008.9 |
| 20260506120217 | 75 | 171 | 0.0 | 4.0 | 0.00 | 0.00 | 0.00 | 88 | 1008.9 |
| 20260506115714 | 75 | 171 | 1.0 | 4.0 | 0.00 | 0.00 | 0.00 | 88 | 1008.8 |
| 20260506115214 | 75 | 174 | 1.0 | 3.0 | 0.00 | 0.00 | 0.00 | 88 | 1008.7 |
| 20260506114714 | 75 | 175 | 1.0 | 3.0 | 0.00 | 0.00 | 0.00 | 88 | 1008.7 |
| 20260506114438 | 75 | 174 | 1.0 | 3.0 | 0.00 | 0.00 | 0.00 | 88 | 1008.5 |
| 20260506113703 | 75 | 174 | 1.0 | 3.0 | 0.00 | 0.00 | 0.00 | 88 | 1008.5 |
| 20260506113205 | 75 | 171 | 1.0 | 3.0 | 0.00 | 0.00 | 0.00 | 88 | 1008.5 |
| 20260506112703 | 75 | 172 | 1.0 | 4.0 | 0.00 | 0.00 | 0.00 | 88 | 1008.5 |
| 20260506112201 | 75 | 172 | 1.0 | 4.0 | 0.00 | 0.00 | 0.00 | 88 | 1008.4 |
| 20260506111701 | 75 | 173 | 1.0 | 4.0 | 0.00 | 0.00 | 0.00 | 88 | 1008.3 |
| 20260506111157 | 75 | 175 | 1.0 | 5.0 | 0.00 | 0.00 | 0.00 | 88 | 1008.1 |
| 20260506110921 | 75 | 169 | 1.0 | 5.0 | 0.00 | 0.00 | 0.00 | 88 | 1008.1 |
| 20260506110157 | 75 | 173 | 1.0 | 4.0 | 0.00 | 0.00 | 0.00 | 88 | 1008.1 |
| 20260506105658 | 75 | 163 | 1.0 | 4.0 | 0.00 | 0.00 | 0.00 | 87 | 1008.0 |
| 20260506105154 | 75 | 163 | 1.0 | 4.0 | 0.00 | 0.00 | 0.00 | 87 | 1008.1 |
| 20260506104653 | 75 | 160 | 0.0 | 3.0 | 0.00 | 0.00 | 0.00 | 87 | 1008.1 |
| 20260506104151 | 75 | 159 | 0.0 | 3.0 | 0.00 | 0.00 | 0.00 | 87 | 1008.1 |
| 20260506103913 | 75 | 159 | 0.0 | 3.0 | 0.00 | 0.00 | 0.00 | 87 | 1008.3 |
| 20260506103148 | 75 | 159 | 0.0 | 3.0 | 0.00 | 0.00 | 0.00 | 87 | 1008.3 |
| 20260506102648 | 75 | 159 | 0.0 | 2.0 | 0.00 | 0.00 | 0.00 | 87 | 1008.1 |
| 20260506102148 | 75 | 159 | 0.0 | 2.0 | 0.00 | 0.00 | 0.00 | 87 | 1008.0 |
| 20260506101648 | 75 | 159 | 1.0 | 2.0 | 0.00 | 0.00 | 0.00 | 87 | 1008.0 |
| 20260506101143 | 75 | 159 | 0.0 | 2.0 | 0.00 | 0.00 | 0.00 | 87 | 1008.0 |
| 20260506100641 | 75 | 158 | 0.0 | 2.0 | 0.00 | 0.00 | 0.00 | 87 | 1007.9 |
| 20260506100404 | 75 | 157 | 0.0 | 1.0 | 0.00 | 0.00 | 0.00 | 87 | 1008.0 |
| 20260506095640 | 75 | 157 | 0.0 | 1.0 | 0.00 | 0.00 | 0.00 | 87 | 1008.1 |
| 20260506095627 | 75 | 157 | 0.0 | 2.0 | 0.00 | 0.00 | 0.00 | 87 | 1008.0 |
| 20260506094640 | 75 | 157 | 0.0 | 2.0 | 0.00 | 0.00 | 0.00 | 87 | 1007.9 |
| 20260506094139 | 75 | 157 | 0.0 | 0.0 | 0.00 | 0.00 | 0.00 | 87 | 1007.9 |
| 20260506093640 | 75 | 157 | 0.0 | 3.0 | 0.00 | 0.00 | 0.00 | 86 | 1007.9 |
| 20260506093404 | 75 | 157 | 0.0 | 3.0 | 0.00 | 0.00 | 0.00 | 86 | 1007.8 |
| 20260506092637 | 75 | 157 | 0.0 | 2.0 | 0.00 | 0.00 | 0.00 | 86 | 1007.8 |
| 20260506092136 | 75 | 157 | 0.0 | 3.0 | 0.00 | 0.00 | 0.00 | 86 | 1007.8 |
| 20260506091636 | 75 | 157 | 0.0 | 3.0 | 0.00 | 0.00 | 0.00 | 86 | 1008.0 |
| 20260506091137 | 76 | 156 | 0.0 | 2.0 | 0.00 | 0.00 | 0.00 | 86 | 1008.1 |
| 20260506090637 | 76 | 156 | 0.0 | 2.0 | 0.00 | 0.00 | 0.00 | 86 | 1008.1 |
| 20260506090137 | 76 | 156 | 0.0 | 1.0 | 0.00 | 0.00 | 0.00 | 86 | 1008.0 |
| 20260506085639 | 76 | 156 | 0.0 | 4.0 | 0.00 | 0.00 | 0.00 | 86 | 1007.9 |
| 20260506085138 | 76 | 156 | 1.0 | 4.0 | 0.00 | 0.00 | 0.00 | 86 | 1008.0 |
| 20260506084638 | 76 | 174 | 1.0 | 4.0 | 0.00 | 0.00 | 0.00 | 86 | 1008.0 |
| 20260506084139 | 76 | 173 | 0.0 | 3.0 | 0.00 | 0.00 | 0.00 | 86 | 1008.1 |
| 20260506083638 | 76 | 172 | 1.0 | 3.0 | 0.00 | 0.00 | 0.00 | 86 | 1008.1 |
| 20260506083137 | 76 | 172 | 1.0 | 3.0 | 0.00 | 0.00 | 0.00 | 86 | 1008.1 |
| 20260506082640 | 76 | 173 | 1.0 | 3.0 | 0.00 | 0.00 | 0.00 | 86 | 1008.3 |
| 20260506082136 | 76 | 173 | 1.0 | 4.0 | 0.00 | 0.00 | 0.00 | 86 | 1008.3 |
| 20260506081638 | 76 | 173 | 1.0 | 5.0 | 0.00 | 0.00 | 0.00 | 86 | 1008.4 |
| 20260506081135 | 76 | 213 | 1.0 | 5.0 | 0.00 | 0.00 | 0.00 | 86 | 1008.3 |
| 20260506080632 | 76 | 175 | 1.0 | 4.0 | 0.00 | 0.00 | 0.00 | 86 | 1008.3 |
| 20260506080133 | 76 | 177 | 1.0 | 4.0 | 0.00 | 0.00 | 0.00 | 85 | 1008.3 |
| 20260506073120 | 77 | 168 | 1.0 | 4.0 | 0.00 | 0.00 | 0.00 | 85 | 1008.6 |
| 20260506072848 | 77 | 167 | 1.0 | 4.0 | 0.00 | 0.00 | 0.00 | 85 | 1008.6 |
| 20260506072338 | 77 | 175 | 1.0 | 3.0 | 0.00 | 0.00 | 0.00 | 85 | 1008.7 |
| 20260506071618 | 77 | 175 | 1.0 | 4.0 | 0.00 | 0.00 | 0.00 | 85 | 1008.7 |
| 20260506071111 | 77 | 175 | 1.0 | 4.0 | 0.00 | 0.00 | 0.00 | 85 | 1008.8 |
| 20260506070601 | 77 | 175 | 1.0 | 5.0 | 0.00 | 0.00 | 0.00 | 85 | 1009.0 |
| 20260506061955 | 77 | 175 | 1.0 | 5.0 | 0.00 | 0.00 | 0.00 | 85 | 1009.1 |
| 20260506061454 | 77 | 176 | 1.0 | 5.0 | 0.00 | 0.00 | 0.00 | 85 | 1009.1 |
| 20260506060951 | 77 | 184 | 1.0 | 5.0 | 0.00 | 0.00 | 0.00 | 85 | 1009.1 |
| 20260506060453 | 77 | 184 | 1.0 | 5.0 | 0.00 | 0.00 | 0.00 | 85 | 1009.0 |
| 20260506050948 | 77 | 168 | 1.0 | 4.0 | 0.00 | 0.00 | 0.00 | 85 | 1009.0 |
| 20260506050445 | 77 | 166 | 1.0 | 5.0 | 0.00 | 0.00 | 0.00 | 84 | 1009.0 |
| 20260506044934 | 77 | 192 | 1.0 | 5.0 | 0.00 | 0.00 | 0.00 | 84 | 1009.1 |
| 20260506044434 | 77 | 175 | 0.0 | 4.0 | 0.00 | 0.00 | 0.00 | 84 | 1009.0 |
| 20260506044157 | 77 | 174 | 0.0 | 4.0 | 0.00 | 0.00 | 0.00 | 84 | 1009.1 |
| 20260506043651 | 77 | 174 | 1.0 | 4.0 | 0.00 | 0.00 | 0.00 | 84 | 1009.0 |
| 20260506042933 | 77 | 170 | 1.0 | 4.0 | 0.00 | 0.00 | 0.00 | 84 | 1008.9 |
| 20260506042433 | 77 | 173 | 1.0 | 5.0 | 0.00 | 0.00 | 0.00 | 84 | 1009.0 |
| 20260506041936 | 77 | 173 | 1.0 | 5.0 | 0.00 | 0.00 | 0.00 | 84 | 1009.0 |
| 20260506041432 | 77 | 151 | 1.0 | 5.0 | 0.00 | 0.00 | 0.00 | 84 | 1008.9 |
| 20260506040935 | 77 | 163 | 1.0 | 4.0 | 0.00 | 0.00 | 0.00 | 84 | 1008.8 |
| 20260506040433 | 77 | 164 | 2.0 | 7.0 | 0.00 | 0.00 | 0.00 | 84 | 1008.8 |
| 20260506035934 | 78 | 158 | 2.0 | 7.0 | 0.00 | 0.00 | 0.00 | 84 | 1008.8 |
| 20260506035433 | 78 | 171 | 1.0 | 7.0 | 0.00 | 0.00 | 0.00 | 84 | 1008.7 |
| 20260506034935 | 78 | 171 | 1.0 | 7.0 | 0.00 | 0.00 | 0.00 | 83 | 1008.7 |
| 20260506034433 | 78 | 175 | 1.0 | 6.0 | 0.00 | 0.00 | 0.00 | 83 | 1008.6 |
| 20260506033934 | 78 | 181 | 1.0 | 6.0 | 0.00 | 0.00 | 0.00 | 83 | 1008.5 |
| 20260506033428 | 78 | 166 | 2.0 | 8.0 | 0.00 | 0.00 | 0.00 | 83 | 1008.5 |
| 20260506032930 | 78 | 178 | 2.0 | 9.0 | 0.00 | 0.00 | 0.00 | 83 | 1008.5 |
| 20260506032431 | 78 | 169 | 3.0 | 9.0 | 0.00 | 0.00 | 0.00 | 82 | 1008.5 |
| 20260506031928 | 78 | 189 | 3.0 | 8.0 | 0.00 | 0.00 | 0.00 | 82 | 1008.4 |
| 20260506031430 | 78 | 190 | 2.0 | 6.0 | 0.00 | 0.00 | 0.00 | 82 | 1008.4 |
| 20260506030928 | 78 | 171 | 2.0 | 8.0 | 0.00 | 0.00 | 0.00 | 82 | 1008.3 |
| 20260506030426 | 78 | 181 | 2.0 | 8.0 | 0.00 | 0.00 | 0.00 | 82 | 1008.3 |
| 20260506025924 | 78 | 205 | 2.0 | 7.0 | 0.00 | 0.00 | 0.00 | 82 | 1008.3 |
| 20260506025421 | 78 | 189 | 2.0 | 7.0 | 0.00 | 0.00 | 0.00 | 82 | 1008.3 |
| 20260506024922 | 78 | 183 | 1.0 | 5.0 | 0.00 | 0.00 | 0.00 | 81 | 1008.1 |
| 20260506024421 | 78 | 192 | 2.0 | 7.0 | 0.00 | 0.00 | 0.00 | 81 | 1008.1 |
| 20260506023921 | 78 | 215 | 2.0 | 7.0 | 0.00 | 0.00 | 0.00 | 81 | 1008.0 |
| 20260506023420 | 78 | 150 | 2.0 | 7.0 | 0.00 | 0.00 | 0.00 | 81 | 1007.9 |
| 20260506023134 | 78 | 178 | 3.0 | 7.0 | 0.00 | 0.00 | 0.00 | 81 | 1007.9 |
| 20260506022623 | 78 | 175 | 3.0 | 7.0 | 0.00 | 0.00 | 0.00 | 81 | 1007.8 |
| 20260506021857 | 78 | 169 | 3.0 | 7.0 | 0.00 | 0.00 | 0.00 | 81 | 1007.7 |
| 20260506021348 | 78 | 214 | 2.0 | 5.0 | 0.00 | 0.00 | 0.00 | 81 | 1007.7 |
| 20260506020842 | 78 | 169 | 2.0 | 8.0 | 0.00 | 0.00 | 0.00 | 81 | 1007.7 |
| 20260506020336 | 79 | 200 | 2.0 | 8.0 | 0.00 | 0.00 | 0.00 | 81 | 1007.6 |
| 20260506015826 | 79 | 175 | 2.0 | 8.0 | 0.00 | 0.00 | 0.00 | 81 | 1007.5 |
| 20260506015319 | 79 | 174 | 2.0 | 8.0 | 0.00 | 0.00 | 0.00 | 81 | 1007.4 |
| 20260506014814 | 79 | 197 | 2.0 | 9.0 | 0.00 | 0.00 | 0.00 | 80 | 1007.3 |
| 20260506014304 | 79 | 202 | 3.0 | 9.0 | 0.00 | 0.00 | 0.00 | 80 | 1007.2 |
| 20260506013758 | 79 | 181 | 3.0 | 7.0 | 0.00 | 0.00 | 0.00 | 80 | 1007.1 |
| 20260506013251 | 79 | 206 | 3.0 | 7.0 | 0.00 | 0.00 | 0.00 | 80 | 1007.0 |
| 20260506012741 | 79 | 205 | 3.0 | 7.0 | 0.00 | 0.00 | 0.00 | 80 | 1006.9 |
| 20260506012235 | 79 | 217 | 3.0 | 7.0 | 0.00 | 0.00 | 0.00 | 80 | 1007.0 |
| 20260506011958 | 79 | 175 | 2.0 | 7.0 | 0.00 | 0.00 | 0.00 | 79 | 1006.9 |
| 20260506011219 | 79 | 195 | 2.0 | 5.0 | 0.00 | 0.00 | 0.00 | 79 | 1006.8 |
| 20260506010714 | 79 | 190 | 2.0 | 7.0 | 0.00 | 0.00 | 0.00 | 79 | 1006.8 |
| 20260506010207 | 79 | 164 | 3.0 | 10.0 | 0.00 | 0.00 | 0.00 | 79 | 1006.8 |
| 20260506005658 | 80 | 203 | 3.0 | 10.0 | 0.00 | 0.00 | 0.00 | 78 | 1006.7 |
| 20260506005155 | 79 | 198 | 3.0 | 9.0 | 0.00 | 0.00 | 0.00 | 78 | 1006.6 |
| 20260506004653 | 80 | 132 | 3.0 | 9.0 | 0.00 | 0.00 | 0.00 | 78 | 1006.5 |
| 20260506004412 | 80 | 196 | 3.0 | 10.0 | 0.00 | 0.00 | 0.00 | 78 | 1006.5 |
| 20260506003652 | 80 | 187 | 4.0 | 10.0 | 0.00 | 0.00 | 0.00 | 78 | 1006.5 |
| 20260506003153 | 80 | 192 | 4.0 | 10.0 | 0.00 | 0.00 | 0.00 | 78 | 1006.5 |
| 20260506002653 | 80 | 165 | 4.0 | 14.0 | 0.00 | 0.00 | 0.00 | 78 | 1006.4 |
| 20260506002153 | 80 | 186 | 3.0 | 14.0 | 0.00 | 0.00 | 0.00 | 78 | 1006.4 |
| 20260506001654 | 80 | 190 | 3.0 | 7.0 | 0.00 | 0.00 | 0.00 | 78 | 1006.5 |
| 20260506001152 | 80 | 184 | 3.0 | 11.0 | 0.00 | 0.00 | 0.00 | 77 | 1006.4 |
| 20260506000653 | 80 | 186 | 5.0 | 12.0 | 0.00 | 0.00 | 0.00 | 77 | 1006.4 |
| 20260506000148 | 80 | 165 | 4.0 | 12.0 | 0.00 | 0.00 | 0.00 | 77 | 1006.4 |
| 20260505235649 | 80 | 229 | 4.0 | 10.0 | 0.00 | 0.00 | 0.00 | 77 | 1006.4 |
| 20260505235411 | 81 | 186 | 4.0 | 10.0 | 0.00 | 0.00 | 0.00 | 76 | 1006.3 |
| 20260505234648 | 81 | 219 | 3.0 | 10.0 | 0.00 | 0.00 | 0.00 | 76 | 1006.4 |
| 20260505234149 | 81 | 178 | 2.0 | 7.0 | 0.00 | 0.00 | 0.00 | 76 | 1006.5 |
| 20260505233649 | 81 | 169 | 2.0 | 8.0 | 0.00 | 0.00 | 0.00 | 76 | 1006.4 |
| 20260505233151 | 81 | 194 | 3.0 | 10.0 | 0.00 | 0.00 | 0.00 | 76 | 1006.4 |
| 20260505232651 | 81 | 157 | 3.0 | 10.0 | 0.00 | 0.00 | 0.00 | 76 | 1006.3 |
| 20260505232146 | 81 | 157 | 4.0 | 8.0 | 0.00 | 0.00 | 0.00 | 76 | 1006.4 |
| 20260505231647 | 81 | 227 | 4.0 | 12.0 | 0.00 | 0.00 | 0.00 | 75 | 1006.5 |
| 20260505231149 | 82 | 209 | 4.0 | 12.0 | 0.00 | 0.00 | 0.00 | 75 | 1006.4 |
| 20260505230648 | 82 | 146 | 3.0 | 11.0 | 0.00 | 0.00 | 0.00 | 75 | 1006.4 |
| 20260505230411 | 82 | 196 | 3.0 | 8.0 | 0.00 | 0.00 | 0.00 | 75 | 1006.4 |
| 20260505225920 | 82 | 201 | 4.0 | 10.0 | 0.00 | 0.00 | 0.00 | 75 | 1006.4 |
| 20260505225143 | 82 | 194 | 4.0 | 10.0 | 0.00 | 0.00 | 0.00 | 74 | 1006.5 |
| 20260505224643 | 82 | 178 | 3.0 | 10.0 | 0.00 | 0.00 | 0.00 | 74 | 1006.5 |
| 20260505224144 | 82 | 174 | 4.0 | 10.0 | 0.00 | 0.00 | 0.00 | 75 | 1006.6 |
| 20260505223643 | 82 | 201 | 4.0 | 11.0 | 0.00 | 0.00 | 0.00 | 74 | 1006.5 |
| 20260505223143 | 83 | 188 | 4.0 | 11.0 | 0.00 | 0.00 | 0.00 | 74 | 1006.5 |
| 20260505222641 | 83 | 167 | 5.0 | 11.0 | 0.00 | 0.00 | 0.00 | 74 | 1006.5 |
| 20260505222136 | 83 | 175 | 5.0 | 11.0 | 0.00 | 0.00 | 0.00 | 73 | 1006.5 |
| 20260505221629 | 83 | 185 | 4.0 | 9.0 | 0.00 | 0.00 | 0.00 | 72 | 1006.5 |
| 20260505221128 | 83 | 209 | 4.0 | 10.0 | 0.00 | 0.00 | 0.00 | 73 | 1006.7 |
| 20260505220628 | 83 | 220 | 4.0 | 10.0 | 0.00 | 0.00 | 0.00 | 72 | 1006.7 |
| 20260505220129 | 83 | 176 | 4.0 | 11.0 | 0.00 | 0.00 | 0.00 | 74 | 1006.7 |
| 20260505215628 | 83 | 0 | 5.0 | 11.0 | 0.00 | 0.00 | 0.00 | 74 | 1006.7 |
| 20260505215127 | 83 | 193 | 5.0 | 11.0 | 0.00 | 0.00 | 0.00 | 73 | 1006.7 |
| 20260505214849 | 83 | 238 | 5.0 | 14.0 | 0.00 | 0.00 | 0.00 | 73 | 1006.7 |
| 20260505214126 | 83 | 175 | 5.0 | 14.0 | 0.00 | 0.00 | 0.00 | 73 | 1006.8 |
| 20260505213624 | 83 | 223 | 4.0 | 10.0 | 0.00 | 0.00 | 0.00 | 73 | 1007.0 |
| 20260505213126 | 83 | 233 | 4.0 | 10.0 | 0.00 | 0.00 | 0.00 | 73 | 1007.0 |
| 20260505212624 | 84 | 187 | 3.0 | 9.0 | 0.00 | 0.00 | 0.00 | 73 | 1007.1 |
| 20260505212124 | 84 | 212 | 3.0 | 8.0 | 0.00 | 0.00 | 0.00 | 72 | 1007.2 |
| 20260505211624 | 83 | 203 | 4.0 | 10.0 | 0.00 | 0.00 | 0.00 | 72 | 1007.1 |
| 20260505211124 | 83 | 196 | 5.0 | 12.0 | 0.00 | 0.00 | 0.00 | 71 | 1007.2 |
| 20260505210627 | 83 | 217 | 5.0 | 16.0 | 0.00 | 0.00 | 0.00 | 72 | 1007.2 |
| 20260505210122 | 83 | 194 | 5.0 | 16.0 | 0.00 | 0.00 | 0.00 | 71 | 1007.3 |
| 20260505205622 | 84 | 161 | 5.0 | 13.0 | 0.00 | 0.00 | 0.00 | 71 | 1007.4 |
| 20260505205122 | 83 | 232 | 5.0 | 14.0 | 0.00 | 0.00 | 0.00 | 72 | 1007.5 |
| 20260505204624 | 83 | 201 | 5.0 | 14.0 | 0.00 | 0.00 | 0.00 | 72 | 1007.5 |
| 20260505204122 | 83 | 249 | 4.0 | 11.0 | 0.00 | 0.00 | 0.00 | 72 | 1007.5 |
| 20260505203624 | 84 | 197 | 4.0 | 11.0 | 0.00 | 0.00 | 0.00 | 73 | 1007.8 |
| 20260505203122 | 83 | 198 | 4.0 | 12.0 | 0.00 | 0.00 | 0.00 | 72 | 1007.8 |
| 20260505202623 | 83 | 198 | 5.0 | 12.0 | 0.00 | 0.00 | 0.00 | 73 | 1007.8 |
| 20260505202123 | 83 | 189 | 5.0 | 11.0 | 0.00 | 0.00 | 0.00 | 73 | 1007.9 |
| 20260505201852 | 83 | 209 | 4.0 | 8.0 | 0.00 | 0.00 | 0.00 | 74 | 1008.0 |
| 20260505201123 | 83 | 225 | 4.0 | 8.0 | 0.00 | 0.00 | 0.00 | 74 | 1008.0 |
| 20260505200614 | 83 | 201 | 4.0 | 9.0 | 0.00 | 0.00 | 0.00 | 73 | 1008.1 |
| 20260505200107 | 84 | 203 | 4.0 | 11.0 | 0.00 | 0.00 | 0.00 | 73 | 1008.1 |
| 20260505195559 | 84 | 211 | 3.0 | 11.0 | 0.00 | 0.00 | 0.00 | 73 | 1008.0 |
| 20260505195101 | 83 | 238 | 3.0 | 9.0 | 0.00 | 0.00 | 0.00 | 73 | 1008.0 |
| 20260505194559 | 83 | 175 | 4.0 | 9.0 | 0.00 | 0.00 | 0.00 | 73 | 1008.1 |
| 20260505194328 | 83 | 196 | 4.0 | 9.0 | 0.00 | 0.00 | 0.00 | 73 | 1008.3 |
| 20260505193600 | 82 | 190 | 4.0 | 12.0 | 0.00 | 0.00 | 0.00 | 74 | 1008.4 |
| 20260505193058 | 82 | 192 | 5.0 | 12.0 | 0.00 | 0.00 | 0.00 | 74 | 1008.5 |
| 20260505192559 | 83 | 223 | 5.0 | 11.0 | 0.00 | 0.00 | 0.00 | 74 | 1008.5 |
| 20260505192100 | 83 | 246 | 5.0 | 11.0 | 0.00 | 0.00 | 0.00 | 73 | 1008.5 |
| 20260505191600 | 83 | 218 | 5.0 | 10.0 | 0.00 | 0.00 | 0.00 | 74 | 1008.5 |
| 20260505191055 | 83 | 216 | 4.0 | 9.0 | 0.00 | 0.00 | 0.00 | 74 | 1008.5 |
| 20260505190554 | 82 | 215 | 3.0 | 9.0 | 0.00 | 0.00 | 0.00 | 74 | 1008.5 |
| 20260505190055 | 82 | 200 | 4.0 | 9.0 | 0.00 | 0.00 | 0.00 | 76 | 1008.6 |
| 20260505185553 | 82 | 219 | 4.0 | 11.0 | 0.00 | 0.00 | 0.00 | 76 | 1008.6 |
| 20260505185329 | 81 | 159 | 5.0 | 12.0 | 0.00 | 0.00 | 0.00 | 76 | 1008.6 |
| 20260505184553 | 81 | 188 | 4.0 | 12.0 | 0.00 | 0.00 | 0.00 | 76 | 1008.6 |
| 20260505184320 | 80 | 205 | 3.0 | 8.0 | 0.00 | 0.00 | 0.00 | 77 | 1008.7 |
| 20260505183554 | 80 | 201 | 4.0 | 9.0 | 0.00 | 0.00 | 0.00 | 77 | 1008.7 |
| 20260505183541 | 80 | 215 | 4.0 | 11.0 | 0.00 | 0.00 | 0.00 | 76 | 1008.8 |
| 20260505182555 | 81 | 221 | 4.0 | 11.0 | 0.00 | 0.00 | 0.00 | 76 | 1008.8 |
| 20260505182054 | 81 | 217 | 5.0 | 11.0 | 0.00 | 0.00 | 0.00 | 76 | 1008.9 |